Погода в Подкамене

Украина / Львовская область     49°56′40″N   25°19′22″E
темп.,
°C
ветер,
м/с
пор.,
м/с
влажн.,
%
обл.,
%
осадки,
мм/ч
давл.,
гПа
погр.,
м
16 сентября, чт
чт1600:00+13юв347526 0.0 101857
03:00+12юв48779 0.0 1018136
06:00+12ююв498075 0.0 1017139
09:00+16ююв596721 0.0 1016246
12:00+22ююв565385 0.0 1016591
15:00+24ю564897 0.0 10141169
18:00+22ю4858100 0.0 1013277
21:00+19ююв4966100 0.1 1014210
17 сентября, пт
пт1700:00+18ююв41066100 0.0 1013212
03:00+15всв1197100 4.3 101233
06:00+16ююв3793100 1.8 1010192
09:00+17юз368599 2.3 1009258
12:00+20з3373100 0.0 1008697
15:00+22зсз2366100 0.1 10071051
18:00+17юз2495100 6.8 1006157
21:00+16ю1196100 8.4 100550
18 сентября, сб
сб1800:00+15сз71498100 7.8 1005720
03:00+13зсз81495100 11.1 1006736
06:00+13з81396100 0.2 1007725
09:00+12з71293100 0.4 1008875
12:00+12з71390100 0.1 1008824
15:00+13з71287100 0.2 1009849
18:00+13з71185100 0.1 1009911
21:00+11з4993100 0.3 1010814
19 сентября, вс
вс1900:00+11з2694100 0.7 1010578
03:00+8сз4796100 2.1 1010496
06:00+6з41094100 2.9 1011948
09:00+6з5895100 3.4 1012888
12:00+6з5893100 0.2 1012714
15:00+7з5791100 0.6 1013924
18:00+7з5893100 0.3 1012628
21:00+6з4794100 0.8 1012900
20 сентября, пн
пн2000:00+6з5896100 0.7 1012619
03:00+6з61198100 2.3 1010709
06:00+7сз6998100 1.6 1011601
09:00+6сз5997100 2.6 1012589
12:00+6сз6996100 1.1 1013916
15:00+6сз6996100 2.1 1015963
18:00+5сз6996100 1.6 1016894
21:00+5сз5897100 3.3 1018851